sat.trackr.live / text

‹ back to catalog

QIANFAN-110

NORAD 68637 · 2026-075B

PAYLOAD ACTIVE UNKNOWN

§ Identity

Operator
Country
PRC
Launch date
2026-04-07
Launch site
WSC
Launch vehicle
Mass (kg)
RCS (m²)

External: N2YO · Heavens-Above · Gunter

§ Orbital elements

Epoch: 2026-05-24T18:32:37.176000Z

Period
105.68 min
Inclination
88.9877°
Eccentricity
0.0011458
Mean motion
13.62578006 rev/d
Perigee alt
1,017.9 km
Apogee alt
1,034.8 km
Semi-major
7,404.5 km
B*
4.1659e-5
RAAN
323.4337°
Arg perigee
69.0309°
Mean anomaly
291.2074°
Rev number
662

§ Raw data

QIANFAN-1101 68637U 26075B   26144.77265250  .00000045  00000+0  41659-4 0  99982 68637  88.9877 323.4337 0011458  69.0309 291.2074 13.62578006  6627

JSON: /api/v1/satellites/68637 · /tle

For live sub-satellite position, see the globe view (requires WebGL).

§ Visibility from observer

Set your observer location to see the next 7 days of passes ≥ 10°. The values pass through the URL so the page stays shareable.

No JS? Fill the form by hand. The geolocation button needs JavaScript.